Wind_Speed
27 24 22 22 13 6 6 7 4 4 7 10 13 16 19 23 21 23 22 22 26 30 24 18 15 10 2 9 6 8 9 12 12 10 7 5 3 1 3 4 4 8 11 12
23 25 24 21 8 7 10 8 3 6 4 10 13 16 17 19 18 17 21 18 19 24 26 17 13 10 13 8 3 5 8 12 9 9 9 6 6 3 2 2 3 2 4 7
16 24 27 18 13 14 12 7 3 5 11 14 14 13 18 23 15 15 17 17 18 20 20 18 14 5 8 9 1 3 4 8 12 9 10 9 9 5 5 6 8 8 9 8
11 26 28 22 12 10 12 7 5 5 10 12 13 14 17 16 10 14 15 17 21 19 16 19 12 1 4 7 6 7 7 10 10 7 6 8 6 6 8 10 12 13 14 13
17 27 25 26 21 13 11 16 10 6 7 13 8 10 16 20 10 9 15 18 18 17 17 16 12 3 5 11 8 9 9 8 9 9 8 7 7 4 5 11 12 16 18 17
20 31 23 28 25 18 16 15 13 6 4 11 7 13 15 14 7 9 11 17 20 18 14 15 8 4 5 9 7 10 9 11 12 11 9 5 3 4 6 11 14 16 18 21
26 30 28 27 25 21 18 13 12 9 8 7 7 9 17 24 24 16 10 14 15 20 14 12 6 3 2 4 3 3 6 11 12 7 5 0 2 5 8 9 14 13 16 20
23 27 26 20 20 16 17 16 15 14 13 18 19 8 11 17 16 14 17 16 16 14 12 10 6 2 2 2 3 3 5 11 6 3 1 2 4 5 7 8 4 5 1 2
21 18 22 25 23 24 17 14 9 13 14 14 18 10 4 10 10 18 24 24 15 13 11 8 7 4 3 8 10 10 7 3 1 3 4 4 7 8 6 6 5 7 6 3
21 18 23 20 26 23 24 16 14 13 17 20 20 16 4 9 15 18 27 19 16 9 9 6 8 6 6 8 13 17 16 9 2 7 9 6 7 8 7 7 7 6 6 7
18 18 20 20 30 20 18 15 14 11 17 27 24 18 10 8 15 13 23 22 2 9 10 7 7 6 8 10 13 12 7 7 10 12 13 13 12 10 9 9 10 11 10 10
4 8 14 19 25 25 24 23 24 26 14 22 29 20 7 14 13 15 15 13 17 15 14 12 9 7 7 11 12 11 14 15 15 14 13 14 14 14 12 11 11 13 15 15
9 8 10 26 31 20 18 22 18 20 20 24 29 20 11 13 15 15 13 7 12 20 15 11 10 11 9 11 11 13 17 18 19 19 17 16 16 17 17 15 14 14 16 18
15 13 16 19 30 25 23 23 20 18 18 20 24 18 14 12 16 18 9 6 11 18 14 14 12 15 12 13 12 12 16 18 21 21 20 20 21 19 19 20 20 20 20 21
20 18 18 17 26 33 27 23 26 26 21 21 26 23 15 14 21 20 9 6 20 24 18 12 12 14 14 14 14 16 20 21 22 24 23 23 25 24 21 19 20 21 22 23
22 22 23 20 23 32 36 29 26 29 25 26 29 21 14 20 24 22 16 21 15 15 12 7 9 14 16 15 15 15 19 23 24 28 25 23 24 25 25 24 22 22 23 24
27 29 24 28 32 28 37 37 31 27 30 26 24 20 18 16 17 22 17 18 10 17 15 14 15 16 16 17 17 18 21 27 26 25 21 21 21 21 22 25 25 24 24 25
33 32 31 30 34 35 31 41 38 35 28 29 27 27 23 17 16 16 20 19 22 24 28 31 27 22 19 18 18 20 23 27 27 26 23 22 23 22 21 22 24 26 26 27
37 37 36 33 32 35 29 33 41 37 29 25 24 25 30 26 22 24 24 20 23 27 29 33 36 21 17 21 21 22 24 26 27 29 27 25 25 25 24 24 23 24 25 26
46 45 42 33 29 33 30 29 37 40 34 28 25 19 21 17 15 15 18 21 27 30 34 36 29 21 18 18 20 24 25 25 26 28 29 28 27 27 27 27 26 25 26 26
43 43 40 33 30 33 31 30 36 37 35 26 21 21 17 22 21 21 25 26 29 32 35 34 34 22 21 22 22 27 29 30 31 32 33 34 32 31 30 29 29 29 27 26
48 45 43 40 36 33 32 28 35 35 34 33 28 25 27 27 24 21 30 28 31 29 33 37 29 28 26 25 27 30 33 35 39 38 38 38 35 34 33 32 30 30 29 28
29 37 43 42 39 39 35 33 31 32 33 34 37 34 34 36 34 33 32 32 34 22 27 35 34 31 29 29 31 32 33 33 35 37 37 38 37 36 35 32 31 32 30 29
36 28 29 30 36 32 40 38 39 39 41 42 38 39 44 43 43 40 36 24 25 27 34 37 33 34 32 33 33 33 33 36 37 36 36 36 35 34 33 31 31 30 30 31
27 27 16 16 23 34 31 38 46 44 47 40 43 47 48 50 44 45 23 20 28 31 33 31 32 32 34 34 34 35 37 37 34 33 32 33 32 32 31 32 32 31 31 31
24 20 18 24 21 19 32 31 40 51 42 37 38 32 40 34 37 27 15 19 21 24 27 29 32 33 34 36 36 36 36 36 36 36 31 30 31 31 31 31 32 33 33 32
Wind_Direction
202 205 208 216 213 198 230 59 72 72 36 18 34 22 28 16 14 15 12 16 3 10 11 15 24 17 133 124 162 176 189 180 185 201 182 178 166 143 99 138 151 164 168 164
213 206 209 216 199 235 212 150 69 344 341 358 16 6 357 357 353 355 9 20 12 5 357 5 13 64 108 93 127 182 156 182 191 196 213 216 204 177 204 221 276 227 205 214
228 206 211 206 215 221 203 148 130 306 318 336 3 19 1 347 347 12 20 15 14 11 3 350 346 6 58 53 58 127 153 196 192 200 221 224 240 229 216 244 257 255 251 252
236 201 219 197 230 220 191 218 210 278 306 355 356 29 11 4 359 23 22 18 12 15 3 346 336 15 41 96 118 140 163 198 206 203 213 248 256 262 275 267 266 261 257 262
214 211 229 202 235 215 175 218 210 248 346 3 4 350 359 331 289 3 23 9 11 11 6 354 351 43 164 79 90 128 140 158 172 174 188 208 231 258 263 267 271 262 253 256
220 222 240 216 228 209 207 220 232 263 334 339 307 310 327 337 295 1 360 7 10 3 6 6 4 75 115 90 80 95 127 153 167 183 186 195 246 289 277 280 279 279 270 256
228 229 234 237 233 210 222 222 257 266 276 286 269 286 329 337 328 310 324 354 360 355 348 360 5 346 19 70 78 126 166 189 163 143 123 181 288 280 286 280 278 271 268 272
228 227 243 250 222 226 234 214 245 255 259 267 264 268 328 326 327 334 359 357 7 9 347 358 15 297 313 253 215 216 239 235 81 67 360 284 285 291 299 310 285 311 327 142
238 235 227 226 221 222 225 233 248 257 258 267 251 283 283 343 329 342 338 332 319 350 3 349 6 360 230 233 232 231 230 236 211 299 306 308 294 291 295 271 279 269 303 295
233 224 219 217 214 217 220 226 228 241 261 265 262 257 327 341 333 348 336 322 303 319 347 354 347 329 286 257 268 248 217 195 200 296 301 310 292 292 297 286 279 273 278 282
234 228 216 221 214 208 232 229 240 255 256 257 255 248 277 294 324 352 352 3 22 1 12 348 335 325 287 275 294 302 306 330 305 302 309 309 294 287 292 293 285 281 277 272
199 240 223 220 209 209 226 232 239 244 261 270 249 253 295 295 320 351 4 1 358 3 353 346 317 301 295 282 300 299 304 303 299 293 296 292 300 300 288 281 287 286 279 277
192 239 226 206 200 208 228 240 247 248 248 270 246 244 277 294 305 307 335 344 11 9 330 323 333 311 309 297 296 300 296 293 295 297 295 302 306 306 297 289 283 288 291 286
207 223 249 229 212 217 236 240 241 235 256 261 235 244 259 267 302 307 333 301 338 344 330 327 332 332 309 293 297 295 299 302 297 293 297 300 300 300 302 297 295 290 286 288
217 228 248 280 214 223 227 231 237 241 246 248 233 240 256 283 284 292 316 319 312 306 312 320 324 319 316 308 307 312 304 298 299 297 297 296 293 289 289 292 292 290 288 286
227 239 243 249 259 239 229 230 234 244 251 246 241 238 249 268 284 279 294 311 317 304 293 309 327 315 306 305 307 305 301 296 292 293 296 293 288 286 284 282 281 280 278 278
228 235 246 250 253 254 246 231 237 244 252 251 244 240 248 270 270 278 291 312 301 320 301 297 299 299 295 288 289 292 292 289 289 290 298 302 298 289 281 279 275 275 274 273
223 232 237 246 256 266 265 238 235 242 251 246 241 241 253 256 266 283 292 307 291 296 304 306 288 279 277 275 276 282 288 286 290 291 299 304 301 299 294 286 279 275 274 275
231 234 242 246 259 267 275 243 235 239 254 263 249 252 251 245 259 269 281 292 292 288 284 304 273 254 259 269 277 286 287 286 291 296 299 297 295 294 294 293 286 280 277 276
241 248 247 253 260 271 278 241 233 238 251 258 250 270 245 273 284 286 283 287 285 282 281 290 307 226 251 264 275 274 274 280 280 286 290 288 287 287 288 286 285 281 278 277
238 239 245 255 258 266 274 247 232 240 245 260 264 261 263 273 265 263 276 285 284 281 293 296 302 306 291 275 278 284 287 287 282 286 287 287 287 284 285 283 281 281 277 277
242 244 247 254 255 253 266 269 242 242 249 251 255 262 261 269 272 266 279 283 285 290 293 284 288 293 281 273 277 281 283 285 285 286 286 284 285 285 282 282 279 278 275 277
244 246 250 255 257 253 258 260 264 245 247 255 257 260 267 271 274 278 283 282 286 278 285 283 279 283 286 282 282 282 285 286 288 289 288 287 287 285 280 283 278 275 274 276
243 244 253 255 256 270 259 254 255 256 248 248 254 258 261 262 265 265 266 252 255 270 272 270 273 276 281 282 284 285 287 284 282 284 286 286 285 283 280 281 276 273 275 277
238 237 261 274 255 264 270 256 254 254 254 260 266 272 266 269 264 247 236 253 265 267 269 277 284 283 281 284 286 284 280 279 283 286 284 285 285 282 281 281 278 276 276 275
235 254 265 267 270 254 246 270 253 253 254 261 255 283 263 265 263 231 232 255 270 279 281 283 284 289 290 289 288 286 285 289 292 290 287 288 286 282 281 278 275 274 277 277
Height
5911 5913 5915 5917 5920 5921 5922 5924 5924 5923 5922 5921 5920 5919 5915 5912 5908 5907 5903 5899 5896 5893 5893 5888 5887 5884 5880 5881 5884 5886 5888 5890 5893 5893 5895 5897 5898 5899 5900 5901 5901 5901 5901 5902
5910 5911 5914 5917 5922 5922 5922 5923 5923 5923 5922 5921 5919 5918 5916 5914 5912 5909 5905 5902 5901 5898 5893 5887 5887 5887 5881 5881 5884 5887 5888 5890 5891 5893 5895 5896 5898 5900 5901 5902 5902 5902 5903 5905
5907 5912 5913 5917 5920 5920 5921 5921 5920 5920 5919 5919 5918 5917 5917 5912 5910 5909 5908 5905 5902 5898 5894 5889 5886 5885 5882 5879 5884 5885 5887 5889 5891 5893 5896 5897 5899 5901 5902 5902 5902 5902 5903 5905
5907 5910 5911 5916 5919 5917 5919 5920 5919 5918 5917 5918 5916 5916 5916 5914 5913 5911 5908 5906 5902 5899 5895 5891 5887 5886 5885 5881 5884 5886 5889 5891 5891 5892 5894 5898 5897 5898 5900 5901 5899 5899 5900 5902
5907 5907 5909 5915 5916 5915 5918 5917 5917 5917 5917 5914 5915 5916 5915 5913 5913 5914 5912 5907 5905 5902 5896 5891 5887 5888 5889 5883 5886 5887 5889 5891 5892 5893 5895 5896 5895 5897 5897 5896 5895 5895 5896 5896
5903 5904 5906 5910 5911 5911 5912 5914 5916 5915 5914 5912 5916 5916 5914 5906 5909 5913 5913 5910 5906 5903 5897 5893 5891 5890 5890 5886 5889 5889 5889 5890 5892 5895 5894 5893 5896 5895 5896 5895 5892 5890 5890 5892
5898 5899 5902 5905 5909 5908 5909 5911 5912 5913 5914 5915 5916 5915 5912 5908 5908 5910 5912 5910 5906 5903 5898 5894 5892 5891 5889 5888 5891 5891 5890 5890 5892 5893 5893 5892 5893 5894 5894 5893 5890 5888 5887 5885
5893 5895 5899 5904 5907 5906 5906 5905 5910 5910 5912 5914 5914 5913 5914 5910 5907 5907 5909 5909 5905 5902 5899 5896 5893 5892 5889 5891 5891 5892 5891 5882 5888 5890 5890 5890 5893 5893 5893 5890 5888 5888 5887 5885
5890 5893 5896 5899 5903 5903 5904 5903 5905 5907 5909 5910 5911 5912 5913 5909 5908 5907 5905 5904 5903 5902 5898 5896 5894 5890 5890 5891 5890 5888 5888 5888 5889 5890 5889 5890 5890 5891 5891 5890 5888 5887 5887 5887
5886 5890 5891 5895 5897 5899 5901 5903 5904 5905 5905 5906 5908 5909 5911 5909 5908 5907 5901 5898 5897 5898 5896 5894 5893 5891 5890 5889 5889 5885 5882 5886 5887 5888 5888 5889 5889 5888 5888 5888 5887 5888 5886 5886
5881 5884 5888 5889 5891 5898 5899 5900 5901 5902 5902 5902 5904 5907 5908 5908 5906 5904 5901 5894 5892 5893 5891 5892 5892 5890 5889 5889 5888 5884 5878 5885 5888 5888 5888 5887 5887 5887 5885 5885 5885 5885 5885 5885
5878 5879 5882 5886 5890 5893 5894 5896 5897 5896 5899 5899 5900 5903 5906 5905 5904 5904 5902 5897 5894 5892 5891 5891 5890 5890 5890 5889 5887 5887 5888 5888 5890 5889 5886 5886 5884 5883 5883 5883 5882 5882 5882 5881
5875 5876 5879 5882 5887 5889 5891 5892 5893 5893 5893 5894 5896 5899 5902 5902 5902 5903 5901 5897 5893 5891 5891 5891 5889 5889 5887 5887 5885 5885 5886 5886 5886 5886 5885 5882 5881 5880 5880 5879 5879 5878 5877 5877
5869 5871 5875 5880 5884 5886 5887 5888 5889 5888 5888 5889 5891 5894 5896 5898 5898 5897 5896 5894 5891 5889 5890 5889 5886 5887 5886 5887 5885 5883 5883 5883 5883 5882 5879 5878 5877 5876 5874 5874 5873 5872 5872 5871
5867 5867 5871 5875 5879 5880 5881 5882 5883 5882 5883 5884 5888 5889 5891 5891 5892 5893 5892 5891 5891 5889 5887 5886 5885 5885 5886 5885 5883 5881 5883 5883 5881 5879 5874 5872 5871 5871 5869 5868 5867 5866 5865 5865
5863 5864 5868 5870 5872 5871 5873 5875 5876 5878 5879 5880 5883 5885 5887 5886 5886 5889 5890 5892 5889 5887 5886 5886 5885 5884 5883 5882 5881 5880 5882 5880 5876 5874 5869 5865 5864 5863 5863 5862 5861 5860 5860 5859
5859 5860 5863 5865 5866 5867 5867 5869 5871 5872 5874 5876 5878 5882 5883 5883 5884 5885 5887 5889 5886 5885 5883 5882 5882 5881 5880 5879 5878 5876 5876 5877 5873 5869 5865 5860 5858 5856 5854 5855 5855 5854 5854 5853
5852 5855 5857 5859 5859 5859 5860 5862 5865 5867 5869 5872 5874 5877 5880 5880 5881 5882 5884 5884 5883 5882 5882 5880 5880 5877 5875 5875 5873 5871 5871 5871 5867 5863 5860 5856 5855 5852 5850 5847 5847 5847 5847 5846
5847 5849 5851 5852 5853 5852 5852 5854 5858 5862 5864 5866 5868 5870 5872 5876 5877 5879 5880 5879 5878 5876 5874 5871 5870 5869 5869 5868 5867 5866 5866 5866 5861 5860 5855 5852 5849 5847 5846 5844 5841 5840 5839 5839
5841 5843 5846 5847 5847 5846 5847 5848 5851 5855 5857 5860 5862 5863 5865 5869 5873 5875 5875 5874 5871 5869 5865 5857 5848 5857 5861 5860 5859 5859 5857 5855 5853 5850 5846 5845 5842 5839 5838 5837 5836 5833 5832 5831
5833 5835 5837 5839 5840 5842 5842 5843 5845 5848 5853 5854 5855 5857 5860 5863 5866 5869 5869 5868 5867 5864 5863 5859 5858 5856 5855 5853 5851 5852 5850 5848 5847 5845 5841 5839 5835 5833 5830 5828 5827 5825 5824 5823
5824 5827 5830 5833 5834 5836 5836 5839 5842 5844 5842 5847 5850 5852 5852 5852 5856 5861 5862 5860 5857 5858 5853 5851 5850 5850 5849 5847 5844 5842 5841 5840 5837 5834 5831 5828 5825 5824 5824 5821 5819 5818 5816 5816
5817 5819 5822 5827 5828 5829 5833 5834 5836 5839 5840 5840 5841 5842 5845 5846 5845 5846 5847 5849 5848 5847 5846 5844 5843 5841 5837 5837 5835 5834 5833 5831 5830 5827 5823 5820 5818 5815 5814 5813 5811 5810 5809 5808
5810 5813 5815 5818 5821 5823 5824 5825 5829 5831 5832 5834 5836 5836 5839 5840 5840 5840 5839 5839 5841 5840 5838 5836 5834 5834 5832 5832 5829 5827 5823 5822 5821 5816 5813 5812 5809 5807 5805 5804 5804 5802 5800 5799
5804 5807 5810 5811 5812 5814 5813 5816 5817 5821 5824 5831 5831 5831 5832 5831 5832 5828 5830 5831 5832 5830 5830 5829 5826 5825 5823 5819 5816 5816 5815 5813 5809 5807 5804 5802 5800 5798 5796 5795 5795 5793 5792 5791
5800 5802 5804 5805 5806 5805 5807 5808 5806 5811 5820 5824 5825 5819 5818 5820 5818 5817 5818 5823 5824 5822 5819 5817 5816 5813 5810 5809 5807 5804 5802 5799 5796 5797 5794 5792 5791 5789 5787 5786 5785 5784 5783 5782